Location: Nairn
(57.5833°N, 3.8667°W)
Time: 14:48:17
(UTC+00:00)

Cosmos 1782 Rocket - Visible Passes

Search period start: 09 December 2021 00:00
Search period end: 19 December 2021 00:00
Orbit: 608 x 631 km, 82.5° (Epoch: 08 December)

Date Brightness Start Highest point End Pass type
(mag) Time Alt. Az. Time Alt. Az. Time Alt. Az.
17 Dec 6.5 07:31:05 10° ESE 07:33:20 14° E 07:35:36 10° NE visible
18 Dec 6.2 07:47:07 10° SE 07:50:28 21° E 07:53:50 10° NE visible
18 Dec 5.9 17:46:14 10° NNE 17:46:14 10° NNE 17:46:14 10° NNE visible
18 Dec 6.3 19:23:18 10° NNW 19:23:25 11° NNW 19:23:25 11° NNW visible
